Regional Weather Roundup
Issued by NWS

Home | Current Version | Previous Version | Text Only | Print | Product List | Glossary Off
Versions: 1 2 3 4 5 6 7 8 9 10 11 12 13 14 15 16 17 18 19 20 21 22 23 24 25 26 27 28 29 30 31 32 33 34 35 36 37 38 39 40 41 42 43 44 45 46 47 48 49 50

000
ASUS45 KBOU 281007
RWRCO

WEATHER ROUNDUP FOR COLORADO
NATIONAL WEATHER SERVICE DENVER/BOULDER CO
300 AM MST SAT FEB 28 2015

NOTE: "FAIR" INDICATES FEW OR NO CLOUDS BELOW 12000 FEET WITH NO
SIGNIFICANT WEATHER AND/OR OBSTRUCTIONS TO VISIBILITY.

COZ001>005-013-030-031-281100-
...NORTHWEST COLORADO...

CITY           SKY/WX    TMP DP  RH WIND       PRES   REMARKS
CRAIG          PTCLDY    18   9  68 E5        29.78S WCI  11
HAYDEN         PTCLDY    12   3  67 E9        29.77S WCI   0
MEEKER         CLEAR     13   7  77 E6        29.77S WCI   4
MOUNT WERNER   NOT AVBL
STEAMBOAT SPGS PTCLDY     6   1  82 CALM      29.78S
WALDEN         PTCLDY    -4  -9  77 SE5       29.75S WCI -15
$$

COZ006>008-011-281100-
...WEST CENTRAL VALLEYS...

CITY           SKY/WX    TMP DP  RH WIND       PRES   REMARKS
GRAND JUNCTION PTCLDY    26  21  81 E13       29.78S WCI  15
MONTROSE       CLEAR     14  10  84 SE8       29.81S WCI   3
EAGLE          CLOUDY    21  16  79 E5        29.82S WCI  15
RIFLE          CLEAR     20  15  81 S3        29.80R
DELTA          CLEAR     24  21  90 E3        29.81S
NUCLA          CLEAR     21  18  86 SE8       29.81S WCI  12
$$

COZ017>023-064>068-281100-
...SOUTHWEST COLORADO...

CITY           SKY/WX    TMP DP  RH WIND       PRES   REMARKS
DURANGO        CLOUDY    25  23  92 E5        29.77F WCI  19
CORTEZ         CLOUDY    29  27  92 NE5       29.76F WCI  24
PAGOSA SPRINGS LGT SNOW  24  24  99 CALM      29.78S
TELLURIDE      PTCLDY    21  12  69 CALM      29.74F
WOLF CREEK PAS LGT SNOW   9   9 100 SW13G20   29.74S VSB 1   WCI  -7
$$

COZ009-010-012-014-032>034-037-058>063-281100-
...CENTRAL COLORADO...

CITY           SKY/WX    TMP DP  RH WIND       PRES   REMARKS
ASPEN          PTCLDY     6   1  80 SW7       29.75R WCI  -6
BUENA VISTA    CLOUDY     8   4  82 W6        29.79S WCI  -2
COPPER MTN     PTCLDY     9   1  72 S8        29.67S WCI  -4
BERTHOUD PASS  FAIR       1  -6  71 W14       29.66S WCI -17
COTTONWOOD PAS PTCLDY    14  10  85 NE5       29.73S WCI   6
GUNNISON       CLOUDY    10   1  67 SW6       29.81R WCI   1
KREMMLING      CLOUDY    14  10  85 SE3       29.80S
LEADVILLE      FLURRIES   4   0  83 NE5       29.72S WCI  -5
SALIDA         PTCLDY     8   5  84 W5        29.88S WCI   0
SUNLIGHT       PTCLDY    12   9  85 CALM        N/A
WILKERSON PASS LGT SNOW   9   3  78 W8        29.70F WCI  -4
$$

COZ069>075-281100-
...SAN LUIS VALLEY/SANGRE DE CRISTO MOUNTAINS...

CITY           SKY/WX    TMP DP  RH WIND       PRES   REMARKS
ALAMOSA        CLOUDY    14  11  87 CALM      29.78F
LA VETA PASS   LGT SNOW  16  12  86 MISG      29.72S
SAGUACHE       CLOUDY    21  18  86 CALM      29.79S
$$

COZ035-036-038>040-281100-
...NORTHERN COLORADO FRONT RANGE...

CITY           SKY/WX    TMP DP  RH WIND       PRES   REMARKS
DENVER INTL AP PTCLDY     7   2  80 W5        29.86F WCI  -2
DMNS CITY PARK   N/A      6   2  86 N1        29.87S
AURORA         CLEAR      5   0  79 SW5       29.85S WCI  -4
FRONT RANGE AP NOT AVBL
ERIE MUNI ARPT PTCLDY    -1  -4  87 S5        29.89S WCI -11
BOULDER MUN AP PTCLDY     3   1  92 CALM      29.87S
CENTENNIAL     PTCLDY     3   0  87 NW3       29.83S
BROOMFIELD     PTCLDY     9   5  85 NW3       29.85F
FORT COLLINS   PTCLDY     7   1  78 NE3       29.90S
LONGMONT       PTCLDY     1  -3  84 W3        29.91S
$$

COZ041-046-047-076>085-087-088-281100-
...PIKES PEAK/PALMER DIVIDE AND SOUTHERN FOOTHILLS...

CITY           SKY/WX    TMP DP  RH WIND       PRES   REMARKS
COLO. SPRINGS  MOCLDY     4   0  83 SW5       29.86S WCI  -5
A. F. ACADEMY  FRZ DRZL   5   1  85 CALM      29.81F
ELLICOTT       NOT AVBL
FALCON         FLURRIES   2  -1  84 W6        29.80F WCI  -9
FORT CARSON    CLOUDY     3   0  85 SW2       29.85S
LIMON          CLOUDY     5   3  91 S12       29.90F FOG     WCI -11
MONUMENT HILL  PTCLDY     5   1  85 SW5       29.76S WCI  -4
TRINIDAD       MOCLDY     7   1  76 W5        29.87F WCI  -2
$$

COZ042>045-048>051-090-091-281100-
...NORTHEAST COLORADO...

CITY           SKY/WX    TMP DP  RH WIND       PRES   REMARKS
GREELEY ARPT   PTCLDY     3  -6  66 N3        29.90F
AKRON          PTCLDY     8   4  83 S12       29.94F WCI  -7
BURLINGTON     CLOUDY    10   5  80 S16       30.02F WCI  -7
WRAY           FLURRIES  14   9  81 SE9       30.07S WCI   2
STERLING       PTCLDY    10   5  79 S8        29.99S WCI  -1
HOLYOKE        NOT AVBL
FORT MORGAN    PTCLDY     7   2  80 S8        29.94F WCI  -5
$$

COZ086-089-092>099-281100-
...SOUTHEAST COLORADO...

CITY           SKY/WX    TMP DP  RH WIND       PRES   REMARKS
PUEBLO         CLOUDY     6   3  87 N7        29.95S WCI  -6
LA JUNTA       MOCLDY     9   4  80 SW5       29.96F WCI   1
LAMAR          CLOUDY    16  11  80 S17       30.01F WCI   0
SPRINGFIELD      N/A     10   7  87 S15       30.00F WCI  -7
$$


USA.gov is the U.S. government's official web portal to all federal, state and local government web resources and services.